Theta_e
319 310 305 307 298 297 294 299 302 298 300 307 312 315 314 317 310 302 327 336 340 342 346 347 349 351 352 352 351 350 350 350 348 348 345 343 341 340 340 340 340 340 339 338 335 333 333 336 337
314 310 306 303 295 290 294 300 300 299 305 311 314 313 314 315 323 326 329 339 341 342 345 347 346 350 351 351 350 350 349 349 349 347 344 342 340 340 340 339 340 342 340 337 337 334 335 334 334
310 309 302 299 293 290 294 297 301 305 306 309 309 315 316 318 323 326 334 340 341 341 344 346 345 349 350 350 350 349 349 349 349 344 343 341 340 340 340 339 340 341 337 337 336 335 334 334 334
301 302 300 295 292 296 298 298 307 306 305 307 312 313 319 326 326 331 339 341 339 340 343 343 346 349 350 349 349 349 348 349 347 345 343 341 340 341 341 340 340 341 338 337 336 336 334 334 334
303 297 290 291 292 296 297 302 305 306 305 304 309 309 316 328 331 336 339 340 338 340 342 344 345 347 348 348 348 348 348 347 346 345 344 343 341 339 339 340 342 341 339 337 336 335 335 334 333
297 295 287 286 290 294 297 302 304 305 306 305 312 313 316 328 329 335 339 338 341 339 341 344 339 341 344 346 346 346 346 346 346 345 345 344 341 339 340 342 342 340 337 335 334 334 333 332 332
294 290 287 288 288 291 296 302 302 302 304 304 313 311 317 323 326 335 336 337 340 340 340 342 341 339 336 339 340 342 344 344 345 344 344 342 340 339 340 339 340 338 336 334 333 333 333 332 333
297 292 288 287 287 289 296 299 300 303 303 307 313 309 313 323 328 330 335 336 337 338 339 339 339 339 339 339 334 336 338 339 340 339 336 333 334 334 334 332 335 338 337 336 336 335 334 334 334
300 289 287 288 288 290 297 296 299 300 303 302 305 313 317 328 328 327 332 333 334 336 337 339 338 338 338 337 333 331 332 333 333 332 329 327 332 332 330 329 332 336 336 336 335 335 335 333 331
294 288 291 293 294 293 296 295 297 297 298 300 311 321 325 329 326 325 328 330 331 332 335 337 337 337 337 339 335 334 334 333 334 333 331 331 331 332 332 329 328 332 330 332 334 334 332 328 327
295 291 293 294 296 297 296 294 296 296 294 300 311 319 324 326 325 325 326 330 331 333 334 336 336 337 337 337 335 334 332 331 332 331 331 331 331 331 332 331 330 330 324 327 327 325 322 322 325
291 296 294 297 297 297 295 296 294 296 297 300 310 323 324 325 325 325 325 326 329 331 334 336 336 335 335 334 334 333 332 329 327 328 331 331 331 332 331 329 323 320 324 314 311 309 306 306 307
293 295 295 296 296 295 296 294 293 295 299 299 300 308 320 324 325 325 327 327 329 329 331 334 335 334 335 334 333 332 327 323 319 318 322 324 321 313 310 308 306 305 305 304 303 303 303 303 305
294 294 293 294 295 295 294 292 293 297 299 298 298 303 311 319 323 321 324 325 327 329 329 332 333 335 335 332 331 328 323 313 309 308 309 309 307 306 305 304 304 302 300 300 300 300 300 301 302
294 290 291 292 294 293 294 290 291 297 297 297 297 298 303 310 312 317 322 323 328 329 330 331 332 334 331 326 321 319 314 309 308 307 305 305 304 303 301 300 299 299 300 300 300 299 299 299 301
290 288 284 292 293 293 293 288 294 297 296 295 295 296 297 299 301 301 302 307 327 329 329 331 331 327 324 321 317 313 309 307 304 301 302 302 302 301 299 299 299 299 299 299 299 299 299 299 298
285 282 285 289 293 290 289 286 292 294 294 294 293 292 294 295 295 298 299 297 311 328 329 327 323 319 316 312 311 308 303 303 301 300 301 301 301 301 299 298 298 298 298 298 298 298 298 297 297
282 282 284 285 289 288 285 285 291 292 292 292 292 291 291 292 295 296 296 296 307 324 325 322 319 314 311 309 307 305 303 301 299 299 299 300 299 299 298 297 298 298 297 297 297 296 297 296 296
288 284 283 287 290 288 286 287 290 292 290 289 290 291 292 293 296 295 296 296 314 314 317 318 313 309 307 305 302 301 300 300 298 298 299 299 298 298 297 296 296 296 295 295 296 296 295 295 295
286 283 282 287 290 287 286 286 289 291 290 293 293 291 292 293 294 295 295 300 312 311 314 312 310 306 306 305 304 301 300 299 297 298 298 298 297 297 296 295 295 295 294 294 294 293 292 293 293
284 282 281 283 287 287 284 285 287 291 293 293 294 295 294 294 295 295 294 299 308 308 307 308 306 305 305 302 299 299 299 298 296 295 295 296 296 296 295 295 294 294 294 292 292 292 291 290 291
281 287 287 285 283 278 285 279 286 289 291 291 295 294 295 294 295 296 295 296 305 307 307 304 303 302 301 300 300 299 298 296 294 294 294 295 296 295 295 294 294 293 293 292 292 292 291 290 288
286 288 286 286 282 279 281 275 283 289 289 291 292 294 294 296 295 294 294 296 304 299 302 302 300 300 300 300 300 298 297 296 294 294 294 294 294 294 294 293 292 292 291 290 290 289 289 290 289
291 289 288 285 279 272 283 281 284 287 289 291 293 293 294 294 294 295 294 296 297 295 295 296 297 296 299 299 298 298 296 295 294 293 292 292 292 292 292 293 292 291 290 289 289 289 289 288 289
289 284 278 276 275 275 281 278 285 288 289 290 292 293 294 292 290 291 293 294 293 293 293 295 296 294 296 297 297 297 296 295 294 293 292 290 290 290 290 291 290 290 290 289 289 288 288 289 292
284 285 279 272 273 275 279 278 283 288 291 292 293 293 292 290 290 290 292 293 292 293 293 294 295 294 295 295 295 296 295 294 293 292 291 291 290 290 290 290 290 290 290 289 289 289 289 292 292
284 281 285 279 279 277 279 281 287 288 287 287 287 288 288 288 289 291 292 292 292 293 293 294 294 293 294 295 295 294 293 293 292 291 291 290 290 290 290 290 289 289 289 289 289 288 288 290 292
285 288 279 280 273 272 277 276 280 283 284 286 286 285 285 287 289 290 291 291 293 293 293 293 294 293 293 293 293 292 292 291 291 290 289 289 290 290 289 289 289 288 288 288 288 287 288 288 291
281 280 282 283 280 275 275 274 283 281 283 284 285 285 285 286 287 289 290 291 292 292 292 292 293 292 292 292 291 291 291 291 291 290 289 289 289 289 289 288 287 287 287 287 286 286 287 288 290
283 281 282 276 275 279 279 279 288 289 288 288 287 286 285 286 287 288 289 289 290 291 291 291 291 292 292 291 291 291 291 290 290 289 289 289 288 288 288 287 287 287 286 286 286 286 286 286 288
Wind_Speed
7 7 1 4 3 5 4 7 4 2 2 1 1 7 9 5 3 4 3 9 18 17 14 14 17 17 17 17 16 16 16 16 17 16 14 13 12 11 11 9 7 7 10 10 11 11 10 8 8
4 4 4 2 5 2 6 5 6 4 5 8 8 4 6 3 3 7 8 12 21 16 14 13 15 17 17 17 17 16 15 15 16 15 14 13 12 12 10 9 6 10 9 8 8 9 10 9 9
3 2 4 5 4 6 6 3 6 3 3 3 5 6 4 5 3 8 10 16 17 15 13 12 14 18 17 17 17 16 15 15 15 15 14 13 12 11 9 8 8 8 9 8 7 6 7 6 6
3 3 4 4 8 7 5 2 5 4 2 5 4 7 3 4 8 9 17 17 16 14 13 14 16 18 18 16 16 16 16 16 15 14 13 12 11 10 8 7 6 7 9 8 6 5 3 3 3
3 2 1 3 7 6 4 1 4 6 5 3 4 5 3 4 7 20 17 16 17 13 12 13 16 17 17 17 16 15 16 14 14 13 12 11 10 9 7 7 9 8 8 7 6 4 3 2 1
2 2 2 6 5 5 5 9 5 5 4 4 7 6 5 3 14 15 15 14 15 14 12 12 13 14 15 16 16 14 14 14 13 12 11 11 9 7 6 8 9 9 6 5 4 3 2 0 3
4 3 5 4 4 4 7 5 6 6 5 4 10 6 3 2 7 14 13 13 13 13 12 10 10 12 12 13 13 13 12 11 10 10 10 10 9 8 8 7 7 7 6 5 3 2 1 2 3
4 3 3 5 4 6 2 2 3 5 5 3 6 8 6 7 9 11 12 12 12 12 12 11 9 9 9 9 11 11 11 10 9 9 9 9 8 8 8 7 7 6 5 4 2 1 2 3 4
4 1 4 5 6 5 1 2 1 1 5 2 1 7 6 14 11 12 11 9 10 9 11 10 9 8 7 7 7 9 9 9 8 8 9 7 4 5 6 6 7 7 5 2 1 3 4 6 7
4 3 7 3 2 3 2 2 3 3 3 2 2 4 10 15 14 15 14 15 14 13 11 11 10 9 8 6 6 5 5 4 4 5 5 4 5 4 5 5 5 5 3 3 4 4 4 5 3
5 6 4 2 1 4 3 1 3 6 4 6 8 8 11 9 10 13 14 16 16 14 11 12 11 10 9 7 5 3 3 3 3 5 5 5 3 3 2 2 2 2 2 1 3 4 3 5 4
4 8 6 4 1 2 3 6 4 6 5 4 11 15 13 13 14 14 13 13 13 14 14 15 14 11 10 5 6 6 5 4 3 4 6 4 3 3 3 3 3 2 2 3 4 3 4 5 5
5 4 3 3 3 4 1 5 5 8 7 5 5 8 13 15 14 9 12 10 13 13 14 15 14 13 12 9 6 6 5 4 4 4 4 3 4 4 4 3 4 4 3 3 3 3 3 4 5
3 3 6 6 5 4 5 2 4 9 10 8 7 11 11 12 15 8 8 11 14 15 14 15 16 13 10 8 9 7 7 6 4 4 4 5 4 4 4 4 4 4 3 2 2 2 3 4 4
3 6 6 6 5 6 4 7 13 11 2 10 10 9 11 13 9 13 15 11 15 13 14 14 14 13 12 11 8 7 7 6 5 4 5 6 5 5 5 4 4 3 3 4 3 3 3 4 4
2 1 2 4 9 5 9 13 9 9 9 14 9 10 9 9 9 10 8 8 11 12 13 13 9 10 11 11 9 7 7 6 6 5 4 6 6 6 5 4 3 2 3 3 3 3 3 4 4
3 5 6 6 8 5 7 7 6 4 7 12 9 9 9 9 9 9 9 10 9 12 13 11 12 13 12 11 9 8 9 7 5 5 4 6 6 6 5 4 3 3 3 3 2 2 2 2 4
8 7 6 7 6 4 5 12 12 7 4 9 9 9 9 9 15 10 10 8 8 9 12 14 12 15 14 9 8 7 6 7 4 5 4 6 5 6 5 4 4 3 3 3 3 3 2 2 4
4 5 7 3 3 5 9 15 17 11 6 9 9 9 10 14 12 9 9 8 8 7 12 15 15 15 14 9 9 6 7 6 5 5 6 6 5 5 5 4 4 4 4 3 3 2 4 4 5
12 10 10 8 3 5 7 14 12 12 10 14 14 12 12 7 8 8 9 9 12 12 13 14 15 17 14 12 8 5 7 3 4 5 5 6 6 5 5 5 4 4 4 5 5 5 2 3 4
11 13 5 11 2 4 4 17 10 10 14 10 14 16 14 15 14 11 10 11 10 14 14 15 16 15 14 13 10 8 7 6 4 3 4 4 6 5 5 5 5 5 4 4 4 4 4 2 2
12 8 12 11 4 8 3 15 10 6 17 13 19 17 17 17 13 11 12 10 14 13 12 13 14 14 11 16 13 19 10 9 4 4 4 5 6 6 5 5 5 5 4 5 4 4 3 3 3
8 7 6 6 6 3 6 1 5 6 13 11 13 16 19 18 15 16 15 14 11 11 13 13 12 11 13 12 15 11 10 4 5 6 7 5 5 6 5 5 5 5 4 4 5 4 4 2 2
4 1 10 6 2 4 24 12 22 12 9 7 8 10 13 12 12 12 9 10 9 8 10 11 14 9 12 13 12 11 15 11 10 7 6 4 4 4 5 5 5 5 5 5 4 4 5 4 3
3 2 3 5 5 8 4 9 23 4 4 6 9 11 9 7 8 10 13 11 10 12 11 11 14 10 10 11 12 11 14 12 13 11 7 7 4 3 4 4 4 3 4 5 5 5 4 3 2
2 4 6 6 5 6 3 10 16 4 9 13 11 10 5 8 9 10 11 12 12 13 12 11 12 11 10 10 10 10 11 8 7 6 7 5 4 5 5 5 5 5 5 4 4 1 2 4 2
2 5 4 7 3 4 5 7 11 6 7 9 9 6 6 6 7 9 8 10 12 12 11 14 12 9 9 11 10 10 8 9 9 8 6 4 5 4 5 5 5 5 5 5 3 2 2 1 0
3 3 4 3 5 7 3 4 5 15 17 14 11 5 1 4 7 7 7 9 8 10 9 10 11 13 9 11 9 9 9 8 8 7 7 7 6 6 6 5 5 5 4 4 4 2 1 1 1
3 3 5 5 4 5 3 3 6 7 12 18 12 7 2 4 6 6 6 6 7 8 9 9 10 12 10 9 7 9 8 9 8 8 7 7 6 6 6 6 5 5 4 3 3 2 0 1 1
6 11 12 6 4 5 6 7 5 12 15 19 20 12 2 2 4 6 7 8 9 9 9 9 8 9 9 8 9 8 9 8 8 7 7 7 7 6 6 6 5 4 4 4 4 4 2 1 2
Wind_Direction
318 312 301 36 49 65 261 257 258 230 103 233 123 115 124 62 143 197 136 143 132 147 155 154 152 151 150 150 147 147 146 144 138 135 129 129 126 124 121 118 116 116 101 93 84 78 85 81 73
334 320 42 88 105 120 262 245 230 229 183 130 95 88 54 104 112 119 109 154 142 146 153 154 151 147 146 150 150 150 150 148 140 135 138 140 138 137 133 123 113 127 107 105 96 88 82 80 75
313 225 101 144 157 196 223 241 186 196 169 152 99 65 106 144 102 153 140 146 138 144 152 152 150 146 147 148 150 150 151 148 139 144 149 148 146 145 142 135 117 121 109 114 115 106 94 82 66
14 13 15 131 218 249 231 238 186 145 29 55 113 73 45 247 158 139 139 142 139 146 152 153 153 151 149 149 150 152 150 147 146 153 153 151 150 149 147 155 147 134 123 116 123 123 110 95 56
34 56 137 237 243 250 252 217 244 156 161 124 124 159 69 343 107 136 141 146 145 147 151 157 155 153 155 154 154 153 149 150 155 156 155 152 152 155 155 173 168 140 133 126 120 123 104 89 3
29 104 121 229 241 246 242 215 203 157 180 150 82 108 170 130 132 149 146 148 148 144 151 158 157 158 162 162 160 155 155 160 160 161 157 149 151 149 141 129 143 138 140 139 135 132 122 340 305
137 110 222 229 261 267 235 150 182 175 172 203 146 112 151 187 147 148 146 141 142 145 152 160 166 162 156 156 154 154 161 164 164 156 148 146 150 151 147 141 142 153 158 154 143 131 66 338 335
120 111 255 249 196 260 227 172 114 147 214 128 145 167 182 208 152 129 136 142 144 151 157 160 162 161 157 163 159 160 162 165 163 157 149 149 159 163 165 168 176 173 171 175 178 267 309 317 318
111 58 246 251 170 249 291 158 335 245 118 68 352 162 190 158 132 125 136 141 147 154 161 161 159 156 157 157 166 162 166 162 157 158 161 155 163 170 182 188 193 193 182 175 254 292 304 306 304
131 179 225 237 268 238 280 178 173 128 123 50 39 27 135 150 154 152 157 160 164 166 167 166 163 164 158 170 155 159 156 159 165 167 169 165 177 193 189 185 214 201 193 222 264 267 298 312 292
183 213 232 260 274 325 308 294 310 130 241 202 176 154 146 161 161 165 167 171 172 170 167 171 169 167 170 173 161 162 155 157 172 179 181 185 175 200 176 145 161 185 153 355 11 12 6 347 328
204 228 228 274 212 298 268 319 273 187 225 186 180 162 163 169 177 174 176 168 170 173 176 172 174 173 176 167 170 170 164 163 161 188 192 173 171 156 143 134 116 97 77 57 37 22 360 353 342
229 255 280 314 229 248 289 258 266 267 223 193 164 189 183 181 186 180 183 168 170 175 179 166 171 178 181 174 170 164 148 144 147 147 138 135 127 121 105 97 87 75 65 56 27 8 352 344 341
331 293 281 284 238 252 227 235 137 249 223 220 187 199 197 192 189 181 176 183 178 180 180 165 167 174 170 162 155 155 147 139 137 132 131 117 116 119 107 102 101 87 72 56 48 11 352 338 342
324 311 315 238 222 240 174 275 227 234 204 235 207 212 206 200 194 197 197 183 187 188 176 173 174 171 159 146 142 138 140 130 123 119 106 107 104 108 119 119 101 88 62 46 29 13 10 359 346
299 202 287 270 175 231 140 262 253 237 199 231 210 210 200 223 207 212 201 188 195 185 179 177 159 151 144 142 142 133 136 130 122 113 107 104 107 114 109 103 88 70 67 62 44 28 354 354 349
311 253 223 299 197 136 177 251 258 301 209 226 216 209 213 225 236 227 208 192 194 185 173 161 151 148 141 139 133 129 120 118 118 109 107 108 102 103 105 103 91 74 73 60 30 32 36 341 334
209 227 241 222 210 176 207 249 264 265 226 233 224 219 216 221 225 218 218 188 196 174 168 154 154 145 136 129 121 112 120 110 114 111 111 110 99 100 104 98 88 81 80 58 42 48 11 360 336
250 244 246 246 218 191 235 245 250 261 256 253 244 234 229 222 225 216 213 181 169 158 155 157 151 154 139 139 132 133 135 137 127 109 119 111 107 108 107 100 91 77 79 70 53 63 42 18 341
268 273 262 284 273 203 269 262 251 243 235 227 233 234 232 225 215 215 202 169 175 169 165 156 159 161 152 150 155 133 137 104 110 113 114 113 111 113 106 109 102 94 96 68 56 55 60 21 20
251 248 259 246 287 256 341 278 245 248 238 231 231 226 228 218 212 212 197 185 173 171 168 165 163 166 151 140 116 102 90 95 86 109 114 121 117 114 114 110 107 93 90 83 75 57 66 66 345
260 213 237 239 145 245 160 274 219 215 236 225 234 222 223 218 212 207 202 182 183 179 167 161 160 159 150 149 144 153 159 162 159 137 135 127 126 121 116 108 104 100 95 86 85 60 71 99 66
258 327 272 228 197 92 223 311 252 195 239 235 235 227 222 220 201 194 195 186 178 157 164 160 152 152 152 153 154 155 133 102 122 120 130 129 128 130 123 118 115 108 103 100 95 77 64 55 90
307 265 316 347 81 206 237 192 274 231 229 235 240 233 224 214 205 199 173 146 152 140 140 147 149 144 150 146 148 161 134 143 136 139 142 143 132 135 128 124 126 127 123 116 107 97 81 68 53
136 100 252 222 205 238 160 175 243 256 289 263 260 263 242 197 167 160 162 149 146 150 147 146 150 145 144 146 142 151 141 148 144 152 152 149 143 146 152 138 139 139 137 131 132 131 134 130 87
278 262 227 243 205 241 136 211 245 223 261 264 247 252 264 194 182 173 163 150 152 151 149 143 145 133 135 133 130 132 138 140 139 144 149 146 149 148 152 138 129 125 134 143 150 155 181 167 215
98 247 322 298 241 251 199 277 298 2 327 320 308 300 262 187 164 153 138 142 145 147 145 142 136 129 133 133 134 128 128 136 143 136 130 136 133 136 138 129 119 108 103 102 111 110 82 36 127
197 145 300 263 251 254 242 280 265 358 337 325 304 287 132 104 95 102 118 134 144 145 135 131 140 143 139 133 132 134 138 127 128 129 136 138 134 126 131 126 122 114 106 102 95 76 24 34 313
321 280 232 245 258 301 295 240 349 355 351 346 321 314 305 105 115 126 124 125 132 125 135 134 132 133 133 132 125 131 132 131 132 136 139 138 130 137 135 134 128 123 120 121 113 114 245 29 313
271 266 258 265 250 286 289 257 340 18 11 6 3 335 297 159 136 137 141 136 140 138 134 141 137 141 144 135 132 133 134 137 137 139 140 137 139 137 137 133 131 145 161 161 164 159 160 201 302